Location: Bittkow
(50.3000°N, 19.0000°E)
Time: 15:07:27
(UTC+00:00)

Nadezhda 3 Rocket - Pass Details

Date: 19 September 2020
Orbit: 957 x 999 km, 82.9° (Epoch: 27 October)

Event Time Altitude Azimuth Distance (km) Brightness Sun altitude
Exits shadow 01:33:52 39° 166° (SSE) 1,401 4.6 -26.2°
Maximum altitude 01:36:12 70° 95° (E) 1,022 4.1 -25.9°
Drops below altitude 10° 01:42:20 10° 14° (NNE) 2,702 7.0 -25.1°
Sets 01:44:51 0° 12° (NNE) 3,653 7.7 -24.8°
